| time (UTC) | temp F | wind direction | speed MPH | gust MPH | rain 1hr in | rain 24hr in | rain mn in | humidity % | barometer mb |
| 20260508113008 | 46 | 313 | 0.0 | 2.0 | 0.00 | 0.07 | 0.00 | 69 | 1009.2 |
| 20260508111504 | 43 | 287 | 0.0 | 1.0 | 0.00 | 0.07 | 0.00 | 82 | 1009.0 |
| 20260508110109 | 41 | 300 | 0.0 | 0.0 | 0.00 | 0.07 | 0.00 | 85 | 1008.9 |
| 20260508104605 | 40 | 300 | 0.0 | 0.0 | 0.00 | 0.10 | 0.00 | 85 | 1008.7 |
| 20260508103054 | 40 | 300 | 0.0 | 0.0 | 0.00 | 0.10 | 0.00 | 84 | 1008.6 |
| 20260508101553 | 39 | 300 | 0.0 | 0.0 | 0.00 | 0.10 | 0.00 | 83 | 1008.5 |
| 20260508100048 | 39 | 300 | 0.0 | 0.0 | 0.00 | 0.10 | 0.00 | 82 | 1008.4 |
| 20260508094547 | 39 | 300 | 0.0 | 0.0 | 0.00 | 0.11 | 0.00 | 81 | 1008.2 |
| 20260508093041 | 39 | 300 | 0.0 | 0.0 | 0.00 | 0.11 | 0.00 | 80 | 1008.1 |
| 20260508091539 | 39 | 300 | 0.0 | 0.0 | 0.00 | 0.11 | 0.00 | 78 | 1008.1 |
| 20260508090040 | 39 | 300 | 0.0 | 0.0 | 0.00 | 0.11 | 0.00 | 78 | 1008.1 |
| 20260508084535 | 40 | 300 | 0.0 | 0.0 | 0.00 | 0.21 | 0.00 | 77 | 1008.0 |
| 20260508083036 | 40 | 300 | 0.0 | 0.0 | 0.00 | 0.21 | 0.00 | 75 | 1007.7 |
| 20260508081529 | 41 | 300 | 0.0 | 0.0 | 0.00 | 0.21 | 0.00 | 74 | 1007.5 |
| 20260508080049 | 41 | 300 | 0.0 | 0.0 | 0.00 | 0.21 | 0.00 | 72 | 1007.2 |
| 20260508074525 | 42 | 300 | 0.0 | 0.0 | 0.00 | 0.30 | 0.00 | 71 | 1006.9 |
| 20260508073023 | 43 | 300 | 0.0 | 0.0 | 0.00 | 0.30 | 0.00 | 70 | 1006.6 |
| 20260508071518 | 44 | 300 | 0.0 | 0.0 | 0.00 | 0.30 | 0.00 | 68 | 1006.5 |
| 20260508070021 | 45 | 300 | 0.0 | 0.0 | 0.00 | 0.30 | 0.00 | 67 | 1006.5 |
| 20260508064528 | 45 | 300 | 0.0 | 0.0 | 0.00 | 0.30 | 0.00 | 64 | 1006.4 |
| 20260508063008 | 46 | 300 | 0.0 | 0.0 | 0.00 | 0.30 | 0.00 | 62 | 1006.5 |
| 20260508061504 | 47 | 300 | 0.0 | 0.0 | 0.00 | 0.30 | 0.00 | 58 | 1006.4 |
| 20260508060002 | 48 | 300 | 0.0 | 1.0 | 0.00 | 0.30 | 0.00 | 57 | 1006.4 |
| 20260508054601 | 49 | 276 | 0.0 | 1.0 | 0.00 | 0.30 | 0.00 | 54 | 1006.4 |
| 20260508053101 | 50 | 263 | 0.0 | 1.0 | 0.00 | 0.30 | 0.00 | 53 | 1006.5 |
| 20260508051608 | 50 | 259 | 0.0 | 5.0 | 0.00 | 0.30 | 0.00 | 51 | 1006.5 |
| 20260508050104 | 50 | 284 | 0.0 | 4.0 | 0.00 | 0.30 | 0.00 | 50 | 1006.5 |
| 20260508044555 | 50 | 273 | 0.0 | 3.0 | 0.00 | 0.30 | 0.00 | 51 | 1006.6 |
| 20260508043050 | 50 | 255 | 0.0 | 4.0 | 0.00 | 0.30 | 0.00 | 52 | 1006.5 |
| 20260508041552 | 51 | 329 | 0.0 | 2.0 | 0.00 | 0.30 | 0.00 | 52 | 1006.6 |
| 20260508040054 | 51 | 296 | 0.0 | 2.0 | 0.00 | 0.30 | 0.00 | 54 | 1006.5 |
| 20260508034548 | 51 | 296 | 0.0 | 7.0 | 0.00 | 0.30 | 0.30 | 53 | 1006.6 |
| 20260508033047 | 51 | 272 | 0.0 | 6.0 | 0.00 | 0.30 | 0.30 | 53 | 1006.5 |
| 20260508031545 | 51 | 326 | 0.0 | 2.0 | 0.00 | 0.30 | 0.30 | 53 | 1006.6 |
| 20260508030052 | 51 | 246 | 0.0 | 2.0 | 0.00 | 0.30 | 0.30 | 53 | 1006.6 |
| 20260508024545 | 52 | 355 | 0.0 | 3.0 | 0.00 | 0.30 | 0.30 | 53 | 1006.6 |
| 20260508023043 | 52 | 286 | 0.0 | 2.0 | 0.00 | 0.30 | 0.30 | 52 | 1006.6 |
| 20260508021543 | 53 | 288 | 0.0 | 3.0 | 0.00 | 0.30 | 0.30 | 51 | 1006.7 |
| 20260508020043 | 53 | 277 | 0.0 | 1.0 | 0.00 | 0.30 | 0.30 | 49 | 1006.7 |
| 20260508014542 | 54 | 324 | 0.0 | 6.0 | 0.00 | 0.30 | 0.30 | 47 | 1006.6 |
| 20260508013041 | 54 | 311 | 0.0 | 1.0 | 0.00 | 0.30 | 0.30 | 46 | 1006.3 |
| 20260508011541 | 55 | 254 | 0.0 | 7.0 | 0.00 | 0.30 | 0.30 | 46 | 1006.1 |
| 20260508010041 | 55 | 265 | 0.0 | 2.0 | 0.00 | 0.30 | 0.30 | 45 | 1006.0 |
| 20260508004547 | 55 | 311 | 0.0 | 5.0 | 0.00 | 0.30 | 0.30 | 44 | 1005.6 |
| 20260508003046 | 55 | 263 | 2.0 | 7.0 | 0.00 | 0.30 | 0.30 | 44 | 1005.2 |
| 20260508001541 | 56 | 303 | 0.0 | 6.0 | 0.00 | 0.30 | 0.30 | 44 | 1005.1 |
| 20260508000038 | 57 | 304 | 0.0 | 4.0 | 0.00 | 0.30 | 0.30 | 42 | 1004.9 |
| 20260507234548 | 58 | 360 | 0.0 | 4.0 | 0.00 | 0.33 | 0.30 | 42 | 1004.8 |
| 20260507233044 | 59 | 284 | 1.0 | 10.0 | 0.00 | 0.33 | 0.30 | 41 | 1004.8 |
| 20260507231538 | 59 | 314 | 1.0 | 13.0 | 0.00 | 0.33 | 0.30 | 38 | 1004.6 |
| 20260507230037 | 60 | 261 | 1.0 | 10.0 | 0.00 | 0.33 | 0.30 | 39 | 1004.5 |
| 20260507224537 | 61 | 267 | 0.0 | 4.0 | 0.00 | 0.35 | 0.30 | 41 | 1004.2 |
| 20260507223046 | 62 | 254 | 1.0 | 4.0 | 0.00 | 0.35 | 0.30 | 41 | 1004.1 |
| 20260507221536 | 62 | 37 | 1.0 | 8.0 | 0.00 | 0.35 | 0.30 | 37 | 1004.1 |
| 20260507220039 | 62 | 337 | 1.0 | 8.0 | 0.00 | 0.35 | 0.30 | 39 | 1004.1 |
| 20260507214535 | 62 | 277 | 0.0 | 5.0 | 0.00 | 0.35 | 0.30 | 37 | 1003.8 |
| 20260507213035 | 64 | 32 | 0.0 | 10.0 | 0.00 | 0.35 | 0.30 | 37 | 1003.8 |
| 20260507211541 | 63 | 24 | 1.0 | 5.0 | 0.00 | 0.35 | 0.30 | 36 | 1003.8 |
| 20260507210041 | 64 | 350 | 0.0 | 8.0 | 0.00 | 0.35 | 0.30 | 38 | 1003.7 |
| 20260507204536 | 64 | 355 | 2.0 | 10.0 | 0.00 | 0.36 | 0.30 | 42 | 1003.6 |
| 20260507203030 | 64 | 321 | 0.0 | 8.0 | 0.00 | 0.36 | 0.30 | 33 | 1003.7 |
| 20260507201529 | 65 | 25 | 0.0 | 13.0 | 0.00 | 0.36 | 0.30 | 41 | 1003.6 |
| 20260507200031 | 66 | 315 | 3.0 | 12.0 | 0.00 | 0.36 | 0.30 | 37 | 1003.7 |
| 20260507194535 | 66 | 330 | 2.0 | 11.0 | 0.00 | 0.36 | 0.30 | 33 | 1003.7 |
| 20260507193025 | 65 | 82 | 1.0 | 10.0 | 0.00 | 0.36 | 0.30 | 34 | 1003.9 |
| 20260507191524 | 65 | 237 | 3.0 | 10.0 | 0.00 | 0.36 | 0.30 | 38 | 1004.1 |
| 20260507190036 | 65 | 269 | 1.0 | 8.0 | 0.00 | 0.36 | 0.30 | 41 | 1004.2 |
| 20260507184527 | 65 | 242 | 1.0 | 6.0 | 0.00 | 0.36 | 0.30 | 36 | 1004.3 |
| 20260507183019 | 65 | 355 | 2.0 | 8.0 | 0.00 | 0.36 | 0.30 | 40 | 1004.5 |
| 20260507181518 | 65 | 19 | 2.0 | 7.0 | 0.00 | 0.36 | 0.30 | 42 | 1004.7 |
| 20260507180116 | 65 | 221 | 1.0 | 9.0 | 0.00 | 0.36 | 0.30 | 41 | 1004.8 |
| 20260507174515 | 64 | 204 | 1.0 | 7.0 | 0.00 | 0.36 | 0.30 | 43 | 1004.7 |
| 20260507173033 | 64 | 338 | 3.0 | 9.0 | 0.00 | 0.36 | 0.30 | 45 | 1004.8 |
| 20260507171511 | 65 | 348 | 2.0 | 6.0 | 0.00 | 0.36 | 0.30 | 52 | 1004.9 |
| 20260507170016 | 63 | 279 | 0.0 | 5.0 | 0.00 | 0.36 | 0.30 | 49 | 1005.0 |
| 20260507164519 | 63 | 214 | 2.0 | 5.0 | 0.00 | 0.36 | 0.30 | 56 | 1005.1 |
| 20260507163005 | 61 | 209 | 0.0 | 4.0 | 0.00 | 0.36 | 0.30 | 57 | 1005.3 |
| 20260507161505 | 61 | 12 | 1.0 | 7.0 | 0.00 | 0.36 | 0.30 | 57 | 1005.6 |
| 20260507160004 | 60 | 10 | 0.0 | 6.0 | 0.00 | 0.36 | 0.30 | 56 | 1005.8 |
| 20260507154503 | 60 | 226 | 1.0 | 9.0 | 0.00 | 0.36 | 0.30 | 57 | 1006.0 |
| 20260507153001 | 60 | 275 | 1.0 | 4.0 | 0.00 | 0.36 | 0.30 | 58 | 1006.0 |
| 20260507151501 | 60 | 252 | 1.0 | 6.0 | 0.00 | 0.36 | 0.30 | 60 | 1006.1 |
| 20260507150059 | 59 | 56 | 1.0 | 5.0 | 0.00 | 0.36 | 0.30 | 62 | 1006.2 |
| 20260507144554 | 59 | 321 | 0.0 | 7.0 | 0.00 | 0.36 | 0.30 | 68 | 1006.3 |
| 20260507143050 | 58 | 248 | 1.0 | 8.0 | 0.00 | 0.36 | 0.30 | 65 | 1006.5 |
| 20260507141548 | 57 | 255 | 1.0 | 6.0 | 0.00 | 0.36 | 0.30 | 65 | 1006.7 |
| 20260507140044 | 57 | 292 | 1.0 | 4.0 | 0.00 | 0.36 | 0.30 | 71 | 1006.6 |
| 20260507134538 | 56 | 360 | 0.0 | 4.0 | 0.00 | 0.36 | 0.30 | 78 | 1006.8 |
| 20260507133034 | 54 | 323 | 1.0 | 4.0 | 0.00 | 0.36 | 0.30 | 88 | 1006.8 |
| 20260507131531 | 53 | 21 | 2.0 | 6.0 | 0.00 | 0.36 | 0.30 | 92 | 1006.9 |
| 20260507130035 | 52 | 333 | 1.0 | 4.0 | 0.00 | 0.36 | 0.30 | 93 | 1006.9 |
| 20260507124535 | 51 | 244 | 0.0 | 3.0 | 0.00 | 0.36 | 0.30 | 93 | 1006.9 |
| 20260507123024 | 50 | 199 | 0.0 | 2.0 | 0.00 | 0.36 | 0.30 | 93 | 1007.1 |
| 20260507121523 | 50 | 261 | 0.0 | 2.0 | 0.04 | 0.36 | 0.30 | 93 | 1006.8 |
| 20260507120019 | 49 | 261 | 0.0 | 2.0 | 0.07 | 0.36 | 0.30 | 92 | 1006.8 |
| 20260507114516 | 49 | 259 | 0.0 | 0.0 | 0.08 | 0.36 | 0.30 | 92 | 1006.7 |